Location: ??????
(55.7522°N, 37.6156°E)
Time: 11:34:51
(UTC+00:00)

USA 229 DEB - Pass Details

Date: 20 December 2025
Orbit: 844 x 1364 km, 63.4° (Epoch: 10 January)

Event Time Altitude Azimuth Distance (km) Brightness Sun altitude
Exits shadow 01:33:58 75° 113° (ESE) 1,265 4.0 -35.0°
Drops below altitude 10° 01:41:19 10° 128° (SE) 3,332 6.7 -34.0°
Sets 01:44:14 0° 129° (SE) 4,331 7.4 -33.5°
